2022/12/31 00:00:00,10.9, 1.3
2022/12/31 00:10:00,10.9, 1.5
2022/12/31 00:20:00,10.9, 1.4
2022/12/31 00:30:00,10.9, 1.4
2022/12/31 00:40:00,10.9, 1.3
2022/12/31 00:50:00,10.9, 1.3
2022/12/31 01:00:00,10.9, 1.3
2022/12/31 01:10:00,10.9, 1.5
2022/12/31 01:20:00,10.9, 1.4
2022/12/31 01:30:00,10.9, 1.5
2022/12/31 01:40:00,10.9, 1.4
2022/12/31 01:50:00,10.9, 1.3
2022/12/31 02:00:00,10.9, 1.4
2022/12/31 02:10:00,10.9, 1.3
2022/12/31 02:20:00,10.9, 1.4
2022/12/31 02:30:00,10.9, 1.3
2022/12/31 02:40:00,10.9, 1.4
2022/12/31 02:50:00,10.9, 1.3
2022/12/31 03:00:00,10.9, 1.2
2022/12/31 03:10:00,10.9, 1.3
2022/12/31 03:20:00,10.9, 1.2
2022/12/31 03:30:00,10.9, 1.2
2022/12/31 03:40:00,10.9, 1.3
2022/12/31 03:50:00,10.9, 1.3
2022/12/31 04:00:00,10.9, 1.3
2022/12/31 04:10:00,10.9, 1.3
2022/12/31 04:20:00,10.9, 1.4
2022/12/31 04:30:00,10.9, 1.4
2022/12/31 04:40:00,10.8, 1.4
2022/12/31 04:50:00,10.9, 1.3
2022/12/31 05:00:00,10.9, 1.4
2022/12/31 05:10:00,10.9, 1.4
2022/12/31 05:20:00,10.9, 1.5
2022/12/31 05:30:00,10.9, 1.4
2022/12/31 05:40:00,10.9, 1.3
2022/12/31 05:50:00,10.9, 1.2
2022/12/31 06:00:00,10.9, 1.4
2022/12/31 06:10:00,10.9, 1.0
2022/12/31 06:20:00,10.9, 1.3
2022/12/31 06:30:00,10.9, 1.3
2022/12/31 06:40:00,10.9, 1.5
2022/12/31 06:50:00,10.8, 1.2
2022/12/31 07:00:00,10.8, 1.3
2022/12/31 07:10:00,10.8, 1.3
2022/12/31 07:20:00,10.8, 1.3
2022/12/31 07:30:00,10.8, 1.2
2022/12/31 07:40:00,10.8, 1.4
2022/12/31 07:50:00,10.8, 1.3
2022/12/31 08:00:00,10.8, 1.5
2022/12/31 08:10:00,10.8, 2.2
2022/12/31 08:20:00,10.8, 1.9
2022/12/31 08:30:00,10.8, 2.1
2022/12/31 08:40:00,10.9, 2.2
2022/12/31 08:50:00,10.8, 2.6
2022/12/31 09:00:00,10.8, 2.9
2022/12/31 09:10:00,10.8, 3.4
2022/12/31 09:20:00,10.8, 3.5
2022/12/31 09:30:00,10.8, 4.3
2022/12/31 09:40:00,10.7, 4.1
2022/12/31 09:50:00,10.8, 3.9
2022/12/31 10:00:00,10.7, 4.2
2022/12/31 10:10:00,10.7, 3.8
2022/12/31 10:20:00,10.6, 3.8
2022/12/31 10:30:00,10.7, 4.5
2022/12/31 10:40:00,10.6, 4.9
2022/12/31 10:50:00,10.6, 4.9
2022/12/31 11:00:00,10.7, 5.0
2022/12/31 11:10:00,10.6, 5.8
2022/12/31 11:20:00,10.7, 6.0
2022/12/31 11:30:00,10.5, 6.4
2022/12/31 11:40:00,10.5, 6.7
2022/12/31 11:50:00,10.5, 6.3
2022/12/31 12:00:00,10.5, 7.0
2022/12/31 12:10:00,10.4, 7.8
2022/12/31 12:20:00,10.5,11.3
2022/12/31 12:30:00,10.6, 9.0
2022/12/31 12:40:00,10.5, 8.8
2022/12/31 12:50:00,10.4, 8.3
2022/12/31 13:00:00,10.2, 8.1
2022/12/31 13:10:00,10.4, 8.5
2022/12/31 13:20:00,10.0,10.0
2022/12/31 13:30:00,10.3,10.0
2022/12/31 13:40:00,10.0, 7.9
2022/12/31 13:50:00,10.0, 8.3
2022/12/31 14:00:00, 9.7, 7.0
2022/12/31 14:10:00, 9.7, 7.1
2022/12/31 14:20:00, 9.8, 7.7
2022/12/31 14:30:00, 9.7, 6.7
2022/12/31 14:40:00, 9.8,10.2
2022/12/31 14:50:00, 9.8,12.3
2022/12/31 15:00:00, 9.8,12.0
2022/12/31 15:10:00, 9.6,10.2
2022/12/31 15:20:00, 9.5, 7.0
2022/12/31 15:30:00, 9.5, 6.1
2022/12/31 15:40:00, 9.6, 4.9
2022/12/31 15:50:00, 9.5, 4.6
2022/12/31 16:00:00, 9.6, 4.5
2022/12/31 16:10:00, 9.4, 4.2
2022/12/31 16:20:00, 9.4, 4.1
2022/12/31 16:30:00, 9.4, 4.0
2022/12/31 16:40:00, 9.3, 3.9
2022/12/31 16:50:00, 9.4, 3.5
2022/12/31 17:00:00, 9.3, 3.5
2022/12/31 17:10:00, 9.3, 3.4
2022/12/31 17:20:00, 9.2, 3.2
2022/12/31 17:30:00, 9.2, 2.7
2022/12/31 17:40:00, 9.1, 2.5
2022/12/31 17:50:00, 9.1, 2.2
2022/12/31 18:00:00, 9.1, 1.9
2022/12/31 18:10:00, 9.1, 1.7
2022/12/31 18:20:00, 9.1, 1.7
2022/12/31 18:30:00, 9.1, 1.7
2022/12/31 18:40:00, 9.1, 1.7
2022/12/31 18:50:00, 9.1, 1.6
2022/12/31 19:00:00, 9.1, 1.8
2022/12/31 19:10:00, 9.1, 1.6
2022/12/31 19:20:00, 9.0, 1.6
2022/12/31 19:30:00, 9.1, 1.6
2022/12/31 19:40:00, 9.1, 1.5
2022/12/31 19:50:00, 9.1, 1.7
2022/12/31 20:00:00, 9.1, 1.6
2022/12/31 20:10:00, 9.1, 1.6
2022/12/31 20:20:00, 9.1, 1.8
2022/12/31 20:30:00, 9.1, 1.7
2022/12/31 20:40:00, 9.1, 1.6
2022/12/31 20:50:00, 9.1, 1.6
2022/12/31 21:00:00, 9.1, 1.6
2022/12/31 21:10:00, 9.1, 1.6
2022/12/31 21:20:00, 9.0, 1.6
2022/12/31 21:30:00, 9.0, 1.4
2022/12/31 21:40:00, 9.0, 1.6
2022/12/31 21:50:00, 9.0, 1.4
2022/12/31 22:00:00, 9.0, 1.4
2022/12/31 22:10:00, 9.0, 1.2
2022/12/31 22:20:00, 9.0, 1.3
2022/12/31 22:30:00, 9.0, 1.1
2022/12/31 22:40:00, 9.1, 1.1
2022/12/31 22:50:00, 9.1, 1.0
2022/12/31 23:00:00, 9.1, 1.2
2022/12/31 23:10:00, 9.0, 1.2
2022/12/31 23:20:00, 9.0, 1.3
2022/12/31 23:30:00, 9.0, 1.3
2022/12/31 23:40:00, 9.0, 1.2
2022/12/31 23:50:00, 9.0, 1.4
